Time,TemperatureF,DewpointF,PressureIn,WindDirection,WindDirectionDegrees,WindSpeedMPH,WindSpeedGustMPH,Humidity,HourlyPrecipIn,Conditions,Clouds,dailyrainin,SoftwareType,DateUTC
2013-06-16 00:01:00,69.1,47.5,30.02,North,10,0.0,0.0,46,0.00,,---,0.00,VWS V13.01,2013-06-16 04:01:00,
2013-06-16 00:02:00,69.1,47.5,30.02,North,10,0.0,0.0,46,0.00,,---,0.00,VWS V13.01,2013-06-16 04:02:00,
2013-06-16 00:04:00,69.1,47.5,30.02,North,10,0.0,0.0,46,0.00,,---,0.00,VWS V13.01,2013-06-16 04:04:00,
2013-06-16 00:09:00,69.1,46.9,30.05,North,10,0.0,0.0,45,0.00,,---,0.00,VWS V13.01,2013-06-16 04:09:00,
2013-06-16 00:14:00,68.9,46.7,30.05,North,10,0.0,0.0,45,0.00,,---,0.00,VWS V13.01,2013-06-16 04:14:00,
2013-06-16 00:19:00,68.9,47.3,30.05,North,10,0.0,0.0,46,0.00,,---,0.00,VWS V13.01,2013-06-16 04:19:00,
2013-06-16 00:24:00,68.7,47.1,30.05,North,10,0.0,0.0,46,0.00,,---,0.00,VWS V13.01,2013-06-16 04:24:00,
2013-06-16 00:29:00,68.5,47.0,30.05,North,10,0.0,0.0,46,0.00,,---,0.00,VWS V13.01,2013-06-16 04:29:00,
2013-06-16 00:34:00,68.4,47.4,30.05,North,10,0.0,0.0,47,0.00,,---,0.00,VWS V13.01,2013-06-16 04:34:00,
2013-06-16 00:39:00,68.5,47.5,30.05,North,10,0.0,0.0,47,0.00,,---,0.00,VWS V13.01,2013-06-16 04:39:00,
2013-06-16 00:44:00,68.5,47.0,30.05,North,10,0.0,0.0,46,0.00,,---,0.00,VWS V13.01,2013-06-16 04:44:00,
2013-06-16 00:50:00,68.4,46.8,30.05,North,10,0.0,0.0,46,0.00,,---,0.00,VWS V13.01,2013-06-16 04:50:00,
2013-06-16 00:55:00,68.4,46.8,30.02,North,10,0.0,0.0,46,0.00,,---,0.00,VWS V13.01,2013-06-16 04:55:00,
2013-06-16 01:00:00,68.2,47.2,30.02,North,10,0.0,0.0,47,0.00,,---,0.00,VWS V13.01,2013-06-16 05:00:00,
2013-06-16 01:05:00,68.0,47.0,30.02,North,10,0.0,0.0,47,0.00,,---,0.00,VWS V13.01,2013-06-16 05:05:00,
2013-06-16 01:10:00,68.0,47.6,30.02,North,10,0.0,0.0,48,0.00,,---,0.00,VWS V13.01,2013-06-16 05:10:00,
2013-06-16 01:15:00,68.0,47.6,30.02,North,10,0.0,0.0,48,0.00,,---,0.00,VWS V13.01,2013-06-16 05:15:00,
2013-06-16 01:20:00,68.0,47.6,30.02,North,10,0.0,0.0,48,0.00,,---,0.00,VWS V13.01,2013-06-16 05:20:00,
2013-06-16 01:25:00,68.0,47.0,30.02,North,10,0.0,0.0,47,0.00,,---,0.00,VWS V13.01,2013-06-16 05:25:00,
2013-06-16 01:30:00,68.0,47.0,30.02,North,10,0.0,0.0,47,0.00,,---,0.00,VWS V13.01,2013-06-16 05:30:00,
2013-06-16 01:36:00,68.0,47.0,30.02,North,10,0.0,0.0,47,0.00,,---,0.00,VWS V13.01,2013-06-16 05:36:00,
2013-06-16 01:41:00,68.0,47.0,30.02,North,357,2.2,2.7,47,0.00,,---,0.00,VWS V13.01,2013-06-16 05:41:00,
2013-06-16 01:46:00,68.0,47.0,30.02,NE,36,0.0,0.0,47,0.00,,---,0.00,VWS V13.01,2013-06-16 05:46:00,
2013-06-16 01:51:00,68.0,47.0,30.02,NE,45,0.0,2.7,47,0.00,,---,0.00,VWS V13.01,2013-06-16 05:51:00,
2013-06-16 01:56:00,67.8,46.9,30.02,NE,50,0.0,0.0,47,0.00,,---,0.00,VWS V13.01,2013-06-16 05:56:00,
2013-06-16 02:01:00,67.8,46.9,30.02,NE,50,0.0,0.0,47,0.00,,---,0.00,VWS V13.01,2013-06-16 06:01:00,
2013-06-16 02:06:00,67.8,46.9,30.02,NE,45,0.0,0.0,47,0.00,,---,0.00,VWS V13.01,2013-06-16 06:06:00,
2013-06-16 02:11:00,67.8,46.9,30.02,NE,45,0.0,0.0,47,0.00,,---,0.00,VWS V13.01,2013-06-16 06:11:00,
2013-06-16 02:16:00,67.8,47.4,30.02,NE,43,0.0,0.0,48,0.00,,---,0.00,VWS V13.01,2013-06-16 06:16:00,
2013-06-16 02:21:00,67.8,47.4,30.02,NE,43,0.0,0.0,48,0.00,,---,0.00,VWS V13.01,2013-06-16 06:21:00,
2013-06-16 02:26:00,67.6,47.3,30.02,NE,50,0.0,0.0,48,0.00,,---,0.00,VWS V13.01,2013-06-16 06:26:00,
2013-06-16 02:31:00,67.6,47.3,30.02,NE,50,0.0,0.0,48,0.00,,---,0.00,VWS V13.01,2013-06-16 06:31:00,
2013-06-16 02:36:00,67.6,47.3,30.02,NE,50,0.0,0.0,48,0.00,,---,0.00,VWS V13.01,2013-06-16 06:36:00,
2013-06-16 02:41:00,67.5,47.1,30.02,NE,50,0.0,0.0,48,0.00,,---,0.00,VWS V13.01,2013-06-16 06:41:00,
2013-06-16 02:46:00,67.5,47.1,30.02,NE,50,0.0,0.0,48,0.00,,---,0.00,VWS V13.01,2013-06-16 06:46:00,
2013-06-16 02:52:00,67.5,47.1,30.02,NE,50,0.0,0.0,48,0.00,,---,0.00,VWS V13.01,2013-06-16 06:52:00,
2013-06-16 02:57:00,67.3,46.9,30.02,NE,50,0.0,0.0,48,0.00,,---,0.00,VWS V13.01,2013-06-16 06:57:00,
2013-06-16 03:02:00,67.3,47.5,30.02,NE,55,0.0,0.0,49,0.00,,---,0.00,VWS V13.01,2013-06-16 07:02:00,
2013-06-16 03:07:00,67.1,47.3,30.02,NE,38,0.0,2.7,49,0.00,,---,0.00,VWS V13.01,2013-06-16 07:07:00,
2013-06-16 03:12:00,67.1,47.3,30.02,NE,38,0.0,0.0,49,0.00,,---,0.00,VWS V13.01,2013-06-16 07:12:00,
2013-06-16 03:17:00,66.9,47.2,30.02,NE,38,0.0,0.0,49,0.00,,---,0.00,VWS V13.01,2013-06-16 07:17:00,
2013-06-16 03:22:00,66.9,47.2,30.02,NNE,31,2.7,2.7,49,0.00,,---,0.00,VWS V13.01,2013-06-16 07:22:00,
2013-06-16 03:27:00,66.9,47.2,30.02,NE,39,0.0,0.0,49,0.00,,---,0.00,VWS V13.01,2013-06-16 07:27:00,
2013-06-16 03:32:00,66.7,47.5,30.02,NE,39,0.0,0.0,50,0.00,,---,0.00,VWS V13.01,2013-06-16 07:32:00,
2013-06-16 03:37:00,66.6,47.4,30.02,NE,39,0.0,0.0,50,0.00,,---,0.00,VWS V13.01,2013-06-16 07:37:00,
2013-06-16 03:42:00,66.6,47.4,30.02,NE,39,0.0,0.0,50,0.00,,---,0.00,VWS V13.01,2013-06-16 07:42:00,
2013-06-16 03:47:00,66.4,47.2,30.02,NE,36,2.7,3.1,50,0.00,,---,0.00,VWS V13.01,2013-06-16 07:47:00,
2013-06-16 03:52:00,66.4,47.7,30.02,NNE,30,0.0,0.0,51,0.00,,---,0.00,VWS V13.01,2013-06-16 07:52:00,
2013-06-16 03:57:00,66.2,47.6,30.02,NNE,24,3.6,3.6,51,0.00,,---,0.00,VWS V13.01,2013-06-16 07:57:00,
2013-06-16 04:02:00,66.2,48.1,30.02,NNE,18,2.7,2.7,52,0.00,,---,0.00,VWS V13.01,2013-06-16 08:02:00,
2013-06-16 04:07:00,66.2,48.1,30.02,NE,48,0.0,0.0,52,0.00,,---,0.00,VWS V13.01,2013-06-16 08:07:00,
2013-06-16 04:12:00,66.0,48.4,30.02,NNE,30,0.0,0.0,53,0.00,,---,0.00,VWS V13.01,2013-06-16 08:12:00,
2013-06-16 04:17:00,65.8,48.2,30.02,NE,34,2.7,2.7,53,0.00,,---,0.00,VWS V13.01,2013-06-16 08:17:00,
2013-06-16 04:22:00,65.8,48.2,30.02,NE,42,0.0,0.0,53,0.00,,---,0.00,VWS V13.01,2013-06-16 08:22:00,
2013-06-16 04:27:00,65.8,48.8,30.02,NNE,25,0.0,0.0,54,0.00,,---,0.00,VWS V13.01,2013-06-16 08:27:00,
2013-06-16 04:33:00,65.8,48.8,30.02,NE,45,0.0,0.0,54,0.00,,---,0.00,VWS V13.01,2013-06-16 08:33:00,
2013-06-16 04:38:00,65.8,49.2,30.02,NNE,25,0.0,0.0,55,0.00,,---,0.00,VWS V13.01,2013-06-16 08:38:00,
2013-06-16 04:43:00,65.7,49.1,30.02,NE,36,0.0,0.0,55,0.00,,---,0.00,VWS V13.01,2013-06-16 08:43:00,
2013-06-16 04:48:00,65.7,49.1,30.02,NE,36,0.0,0.0,55,0.00,,---,0.00,VWS V13.01,2013-06-16 08:48:00,
2013-06-16 04:53:00,65.7,49.1,30.02,North,349,0.0,0.0,55,0.00,,---,0.00,VWS V13.01,2013-06-16 08:53:00,
2013-06-16 04:58:00,65.5,48.9,30.02,North,5,0.0,0.0,55,0.00,,---,0.00,VWS V13.01,2013-06-16 08:58:00,
2013-06-16 05:03:00,65.5,48.9,30.02,ESE,113,0.0,0.0,55,0.00,,---,0.00,VWS V13.01,2013-06-16 09:03:00,
2013-06-16 05:08:00,65.5,48.9,30.02,ESE,105,0.0,0.0,55,0.00,,---,0.00,VWS V13.01,2013-06-16 09:08:00,
2013-06-16 05:13:00,65.5,48.9,30.02,East,99,0.0,0.0,55,0.00,,---,0.00,VWS V13.01,2013-06-16 09:13:00,
2013-06-16 05:18:00,65.5,49.4,30.02,East,86,0.0,0.0,56,0.00,,---,0.00,VWS V13.01,2013-06-16 09:18:00,
2013-06-16 05:23:00,65.5,49.4,30.05,ENE,77,0.0,0.0,56,0.00,,---,0.00,VWS V13.01,2013-06-16 09:23:00,
2013-06-16 05:28:00,65.5,49.4,30.05,ENE,60,0.0,0.0,56,0.00,,---,0.00,VWS V13.01,2013-06-16 09:28:00,
2013-06-16 05:33:00,65.5,49.4,30.05,NE,39,2.7,2.7,56,0.00,,---,0.00,VWS V13.01,2013-06-16 09:33:00,
2013-06-16 05:39:00,65.5,49.4,30.05,NE,39,0.0,0.0,56,0.00,,---,0.00,VWS V13.01,2013-06-16 09:39:00,
2013-06-16 05:44:00,65.5,49.9,30.05,NE,38,3.1,3.1,57,0.00,,---,0.00,VWS V13.01,2013-06-16 09:44:00,
2013-06-16 05:49:00,65.5,49.9,30.05,NNE,30,0.0,0.0,57,0.00,,---,0.00,VWS V13.01,2013-06-16 09:49:00,
2013-06-16 05:54:00,65.5,49.9,30.05,NNE,33,2.7,2.7,57,0.00,,---,0.00,VWS V13.01,2013-06-16 09:54:00,
2013-06-16 05:59:00,65.3,49.2,30.05,NE,44,0.0,0.0,56,0.00,,---,0.00,VWS V13.01,2013-06-16 09:59:00,
2013-06-16 06:04:00,65.5,49.9,30.05,NNE,32,2.7,4.0,57,0.00,,---,0.00,VWS V13.01,2013-06-16 10:04:00,
2013-06-16 06:09:00,65.5,49.9,30.05,NE,41,0.0,0.0,57,0.00,,---,0.00,VWS V13.01,2013-06-16 10:09:00,
2013-06-16 06:14:00,65.5,49.9,30.05,NE,37,0.0,0.0,57,0.00,,---,0.00,VWS V13.01,2013-06-16 10:14:00,
2013-06-16 06:19:00,65.5,49.9,30.05,NE,38,0.0,0.0,57,0.00,,---,0.00,VWS V13.01,2013-06-16 10:19:00,
2013-06-16 06:24:00,65.5,49.9,30.05,NNE,32,3.1,3.1,57,0.00,,---,0.00,VWS V13.01,2013-06-16 10:24:00,
2013-06-16 06:29:00,65.5,49.9,30.05,NE,37,0.0,0.0,57,0.00,,---,0.00,VWS V13.01,2013-06-16 10:29:00,
2013-06-16 06:34:00,65.5,49.9,30.05,NE,36,0.0,3.6,57,0.00,,---,0.00,VWS V13.01,2013-06-16 10:34:00,
2013-06-16 06:40:00,65.7,50.5,30.05,NE,37,0.0,0.0,58,0.00,,---,0.00,VWS V13.01,2013-06-16 10:40:00,
2013-06-16 06:45:00,65.7,50.5,30.05,NE,41,0.0,0.0,58,0.00,,---,0.00,VWS V13.01,2013-06-16 10:45:00,
2013-06-16 06:50:00,65.7,50.5,30.05,NE,35,0.0,0.0,58,0.00,,---,0.00,VWS V13.01,2013-06-16 10:50:00,
2013-06-16 06:55:00,65.7,50.5,30.05,NNE,13,0.0,0.0,58,0.00,,---,0.00,VWS V13.01,2013-06-16 10:55:00,
2013-06-16 07:00:00,65.8,51.1,30.05,NE,47,0.0,0.0,59,0.00,,---,0.00,VWS V13.01,2013-06-16 11:00:00,
2013-06-16 07:05:00,65.8,51.1,30.05,NE,47,0.0,0.0,59,0.00,,---,0.00,VWS V13.01,2013-06-16 11:05:00,
2013-06-16 07:10:00,66.0,51.3,30.05,NE,43,0.0,0.0,59,0.00,,---,0.00,VWS V13.01,2013-06-16 11:10:00,
2013-06-16 07:15:00,66.0,51.3,30.05,ENE,72,0.0,0.0,59,0.00,,---,0.00,VWS V13.01,2013-06-16 11:15:00,
2013-06-16 07:20:00,66.2,51.5,30.05,NE,43,0.0,0.0,59,0.00,,---,0.00,VWS V13.01,2013-06-16 11:20:00,
2013-06-16 07:26:00,66.4,51.6,30.05,NE,36,0.0,0.0,59,0.00,,---,0.00,VWS V13.01,2013-06-16 11:26:00,
2013-06-16 07:31:00,66.4,51.6,30.05,NE,37,0.0,0.0,59,0.00,,---,0.00,VWS V13.01,2013-06-16 11:31:00,
2013-06-16 07:36:00,66.6,51.8,30.05,NE,41,0.0,0.0,59,0.00,,---,0.00,VWS V13.01,2013-06-16 11:36:00,
2013-06-16 07:41:00,66.7,52.4,30.05,NE,41,0.0,0.0,60,0.00,,---,0.00,VWS V13.01,2013-06-16 11:41:00,
2013-06-16 07:47:00,66.9,52.6,30.05,ENE,63,0.0,0.0,60,0.00,,---,0.00,VWS V13.01,2013-06-16 11:47:00,
2013-06-16 07:52:00,67.1,52.8,30.05,NNE,24,0.0,0.0,60,0.00,,---,0.00,VWS V13.01,2013-06-16 11:52:00,
2013-06-16 07:57:00,67.3,52.9,30.05,North,8,0.0,0.0,60,0.00,,---,0.00,VWS V13.01,2013-06-16 11:57:00,
2013-06-16 08:02:00,67.5,52.7,30.05,North,2,2.2,2.2,59,0.00,,---,0.00,VWS V13.01,2013-06-16 12:02:00,
2013-06-16 08:07:00,67.8,52.5,30.05,NNE,13,0.0,0.0,58,0.00,,---,0.00,VWS V13.01,2013-06-16 12:07:00,
2013-06-16 08:12:00,68.0,52.2,30.05,NNE,14,0.0,2.2,57,0.00,,---,0.00,VWS V13.01,2013-06-16 12:12:00,
2013-06-16 08:17:00,68.4,52.1,30.05,North,0,0.0,0.0,56,0.00,,---,0.00,VWS V13.01,2013-06-16 12:17:00,
2013-06-16 08:22:00,68.5,51.2,30.05,SSW,195,2.2,2.2,54,0.00,,---,0.00,VWS V13.01,2013-06-16 12:22:00,
2013-06-16 08:27:00,68.9,50.6,30.05,NE,55,5.4,5.4,52,0.00,,---,0.00,VWS V13.01,2013-06-16 12:27:00,
2013-06-16 08:32:00,69.3,50.4,30.05,NE,45,0.0,0.0,51,0.00,,---,0.00,VWS V13.01,2013-06-16 12:32:00,
2013-06-16 08:37:00,69.8,50.9,30.05,East,91,0.0,0.0,51,0.00,,---,0.00,VWS V13.01,2013-06-16 12:37:00,
2013-06-16 08:42:00,70.5,50.5,30.05,ESE,113,0.0,2.7,49,0.00,,---,0.00,VWS V13.01,2013-06-16 12:42:00,
2013-06-16 08:47:00,70.9,50.2,30.05,NE,56,0.0,0.0,48,0.00,,---,0.00,VWS V13.01,2013-06-16 12:47:00,
2013-06-16 08:52:00,71.1,50.4,30.05,ENE,67,0.0,2.2,48,0.00,,---,0.00,VWS V13.01,2013-06-16 12:52:00,
2013-06-16 08:58:00,71.2,50.0,30.05,NE,45,3.6,3.6,47,0.00,,---,0.00,VWS V13.01,2013-06-16 12:58:00,
2013-06-16 09:03:00,71.4,49.6,30.05,NE,43,0.0,0.0,46,0.00,,---,0.00,VWS V13.01,2013-06-16 13:03:00,
2013-06-16 09:08:00,71.4,49.6,30.05,NNE,33,0.0,2.7,46,0.00,,---,0.00,VWS V13.01,2013-06-16 13:08:00,
2013-06-16 09:13:00,71.1,48.7,30.05,SSE,159,3.6,3.6,45,0.00,,---,0.00,VWS V13.01,2013-06-16 13:13:00,
2013-06-16 09:18:00,71.1,49.8,30.05,ENE,75,0.0,0.0,47,0.00,,---,0.00,VWS V13.01,2013-06-16 13:18:00,
2013-06-16 09:23:00,71.2,50.0,30.05,NE,50,0.0,0.0,47,0.00,,---,0.00,VWS V13.01,2013-06-16 13:23:00,
2013-06-16 09:28:00,71.6,50.3,30.05,ENE,77,2.2,2.2,47,0.00,,---,0.00,VWS V13.01,2013-06-16 13:28:00,
2013-06-16 09:33:00,72.1,50.2,30.05,North,357,2.7,2.7,46,0.00,,---,0.00,VWS V13.01,2013-06-16 13:33:00,
2013-06-16 09:38:00,72.5,50.0,30.05,ENE,65,0.0,0.0,45,0.00,,---,0.00,VWS V13.01,2013-06-16 13:38:00,
2013-06-16 09:43:00,72.9,50.3,30.05,ESE,123,2.7,3.6,45,0.00,,---,0.00,VWS V13.01,2013-06-16 13:43:00,
2013-06-16 09:48:00,73.2,50.0,30.05,NNE,26,0.0,0.0,44,0.00,,---,0.00,VWS V13.01,2013-06-16 13:48:00,
2013-06-16 09:53:00,73.8,50.5,30.05,North,357,0.0,0.0,44,0.00,,---,0.00,VWS V13.01,2013-06-16 13:53:00,
2013-06-16 09:58:00,74.3,50.4,30.05,ESE,107,4.0,4.0,43,0.00,,---,0.00,VWS V13.01,2013-06-16 13:58:00,
2013-06-16 10:03:00,74.7,50.1,30.05,ENE,63,0.0,0.0,42,0.00,,---,0.00,VWS V13.01,2013-06-16 14:03:00,
2013-06-16 10:08:00,75.0,49.8,30.05,NNW,335,0.0,0.0,41,0.00,,---,0.00,VWS V13.01,2013-06-16 14:08:00,
2013-06-16 10:13:00,75.6,50.2,30.05,SW,229,0.0,2.2,41,0.00,,---,0.00,VWS V13.01,2013-06-16 14:13:00,
2013-06-16 10:18:00,76.1,48.7,30.05,NE,35,2.7,3.1,38,0.00,,---,0.00,VWS V13.01,2013-06-16 14:18:00,
2013-06-16 10:23:00,76.8,50.0,30.05,SW,217,0.0,0.0,39,0.00,,---,0.00,VWS V13.01,2013-06-16 14:23:00,
2013-06-16 10:29:00,77.5,49.2,30.05,NNE,20,3.1,4.0,37,0.00,,---,0.00,VWS V13.01,2013-06-16 14:29:00,
2013-06-16 10:34:00,78.1,49.0,30.05,NNE,14,3.6,3.6,36,0.00,,---,0.00,VWS V13.01,2013-06-16 14:34:00,
2013-06-16 10:39:00,78.8,48.9,30.05,NE,44,2.7,2.7,35,0.00,,---,0.00,VWS V13.01,2013-06-16 14:39:00,
2013-06-16 10:44:00,79.5,48.7,30.05,NNE,23,3.1,3.6,34,0.00,,---,0.00,VWS V13.01,2013-06-16 14:44:00,
2013-06-16 10:49:00,79.9,47.4,30.05,NNE,14,0.0,0.0,32,0.00,,---,0.00,VWS V13.01,2013-06-16 14:49:00,
2013-06-16 11:22:00,84.0,49.3,30.02,North,2,3.1,3.6,30,0.00,,---,0.00,VWS V13.01,2013-06-16 15:22:00,
2013-06-16 11:27:00,84.4,48.7,30.02,North,5,3.1,3.1,29,0.00,,---,0.00,VWS V13.01,2013-06-16 15:27:00,
2013-06-16 11:32:00,84.6,47.9,30.02,North,0,3.1,3.1,28,0.00,,---,0.00,VWS V13.01,2013-06-16 15:32:00,
2013-06-16 11:37:00,85.1,47.4,30.02,NNE,24,0.0,2.7,27,0.00,,---,0.00,VWS V13.01,2013-06-16 15:37:00,
2013-06-16 11:42:00,85.6,46.8,30.02,NNE,22,0.0,0.0,26,0.00,,---,0.00,VWS V13.01,2013-06-16 15:42:00,
2013-06-16 11:47:00,85.6,44.7,30.02,NE,44,0.0,0.0,24,0.00,,---,0.00,VWS V13.01,2013-06-16 15:47:00,
2013-06-16 11:52:00,86.5,49.6,30.02,NNE,12,3.1,3.1,28,0.00,,---,0.00,VWS V13.01,2013-06-16 15:52:00,
2013-06-16 11:57:00,87.1,46.0,30.02,NE,42,0.0,0.0,24,0.00,,---,0.00,VWS V13.01,2013-06-16 15:57:00,
2013-06-16 12:02:00,87.1,47.0,30.02,SSW,207,2.2,3.1,25,0.00,,---,0.00,VWS V13.01,2013-06-16 16:02:00,
2013-06-16 12:07:00,87.1,43.7,30.02,ESE,105,2.7,2.7,22,0.00,,---,0.00,VWS V13.01,2013-06-16 16:07:00,
2013-06-16 12:12:00,87.4,47.3,30.02,NE,38,2.7,3.1,25,0.00,,---,0.00,VWS V13.01,2013-06-16 16:12:00,
2013-06-16 12:17:00,88.0,44.4,30.02,NNE,28,0.0,4.0,22,0.00,,---,0.00,VWS V13.01,2013-06-16 16:17:00,
2013-06-16 12:22:00,88.5,47.2,29.99,NNE,19,2.7,2.7,24,0.00,,---,0.00,VWS V13.01,2013-06-16 16:22:00,
2013-06-16 12:27:00,88.9,45.2,29.99,North,0,2.7,3.1,22,0.00,,---,0.00,VWS V13.01,2013-06-16 16:27:00,
2013-06-16 12:33:00,88.5,42.4,29.99,ESE,104,3.6,3.6,20,0.00,,---,0.00,VWS V13.01,2013-06-16 16:33:00,
2013-06-16 12:38:00,88.5,43.6,29.99,North,357,0.0,3.6,21,0.00,,---,0.00,VWS V13.01,2013-06-16 16:38:00,
2013-06-16 12:43:00,89.2,45.5,29.99,ESE,120,2.2,2.2,22,0.00,,---,0.00,VWS V13.01,2013-06-16 16:43:00,
2013-06-16 12:48:00,89.4,44.4,29.99,North,5,2.7,3.6,21,0.00,,---,0.00,VWS V13.01,2013-06-16 16:48:00,
2013-06-16 12:53:00,90.1,43.7,29.99,ESE,117,2.2,3.6,20,0.00,,---,0.00,VWS V13.01,2013-06-16 16:53:00,
2013-06-16 12:58:00,90.1,43.7,29.99,WSW,243,4.5,4.5,20,0.00,,---,0.00,VWS V13.01,2013-06-16 16:58:00,
2013-06-16 13:03:00,89.8,42.1,29.99,NNE,31,3.1,3.1,19,0.00,,---,0.00,VWS V13.01,2013-06-16 17:03:00,
2013-06-16 13:08:00,89.6,43.3,29.99,NE,48,3.1,3.6,20,0.00,,---,0.00,VWS V13.01,2013-06-16 17:08:00,
2013-06-16 13:13:00,89.8,40.7,29.99,East,94,3.6,3.6,18,0.00,,---,0.00,VWS V13.01,2013-06-16 17:13:00,
2013-06-16 13:18:00,89.6,41.9,29.99,WSW,258,3.1,3.1,19,0.00,,---,0.00,VWS V13.01,2013-06-16 17:18:00,
2013-06-16 13:41:00,86.5,46.6,29.99,NE,50,3.6,3.6,25,0.00,,---,0.00,VWS V13.01,2013-06-16 17:41:00,
2013-06-16 13:46:00,87.6,46.4,29.99,SSE,157,0.0,3.1,24,0.00,,---,0.00,VWS V13.01,2013-06-16 17:46:00,
2013-06-16 13:51:00,88.0,44.4,29.99,North,6,3.1,3.1,22,0.00,,---,0.00,VWS V13.01,2013-06-16 17:51:00,
2013-06-16 13:56:00,88.3,44.7,29.99,North,8,3.1,3.1,22,0.00,,---,0.00,VWS V13.01,2013-06-16 17:56:00,
2013-06-16 14:01:00,89.6,44.5,29.99,NNE,32,0.0,0.0,21,0.00,,---,0.00,VWS V13.01,2013-06-16 18:01:00,
2013-06-16 14:06:00,90.0,43.5,29.99,SSW,197,3.1,3.6,20,0.00,,---,0.00,VWS V13.01,2013-06-16 18:06:00,
2013-06-16 14:11:00,90.3,45.1,29.99,SSE,147,3.1,3.1,21,0.00,,---,0.00,VWS V13.01,2013-06-16 18:11:00,
2013-06-16 14:16:00,90.7,44.1,29.99,North,357,3.1,5.4,20,0.00,,---,0.00,VWS V13.01,2013-06-16 18:16:00,
2013-06-16 14:21:00,90.7,42.8,29.99,North,2,3.1,3.6,19,0.00,,---,0.00,VWS V13.01,2013-06-16 18:21:00,
2013-06-16 14:26:00,91.2,44.6,29.99,North,357,2.7,3.1,20,0.00,,---,0.00,VWS V13.01,2013-06-16 18:26:00,
2013-06-16 14:31:00,90.5,44.0,29.99,SSW,197,3.1,4.0,20,0.00,,---,0.00,VWS V13.01,2013-06-16 18:31:00,
2013-06-16 14:37:00,89.4,44.4,29.99,NNE,20,0.0,0.0,21,0.00,,---,0.00,VWS V13.01,2013-06-16 18:37:00,
2013-06-16 14:42:00,88.3,43.5,29.99,NE,46,2.7,2.7,21,0.00,,---,0.00,VWS V13.01,2013-06-16 18:42:00,
2013-06-16 14:47:00,87.6,44.1,29.99,NE,37,3.1,3.1,22,0.00,,---,0.00,VWS V13.01,2013-06-16 18:47:00,
2013-06-16 14:52:00,86.5,44.4,29.99,ENE,63,0.0,0.0,23,0.00,,---,0.00,VWS V13.01,2013-06-16 18:52:00,
2013-06-16 14:57:00,85.5,45.7,29.99,North,3,0.0,0.0,25,0.00,,---,0.00,VWS V13.01,2013-06-16 18:57:00,
2013-06-16 15:02:00,85.1,47.4,29.99,NNE,32,0.0,0.0,27,0.00,,---,0.00,VWS V13.01,2013-06-16 19:02:00,
2013-06-16 15:08:00,85.5,48.7,29.99,ENE,60,0.0,0.0,28,0.00,,---,0.00,VWS V13.01,2013-06-16 19:08:00,
2013-06-16 15:28:00,86.4,47.5,29.99,North,4,0.0,0.0,26,0.00,,---,0.00,VWS V13.01,2013-06-16 19:28:00,
2013-06-16 15:33:00,86.5,49.6,29.99,NNE,22,0.0,0.0,28,0.00,,---,0.00,VWS V13.01,2013-06-16 19:33:00,
2013-06-16 15:39:00,87.1,50.1,29.96,NNE,12,2.2,2.7,28,0.00,,---,0.00,VWS V13.01,2013-06-16 19:39:00,
2013-06-16 15:44:00,88.2,50.0,29.96,ESE,106,0.0,0.0,27,0.00,,---,0.00,VWS V13.01,2013-06-16 19:44:00,
2013-06-16 15:49:00,88.9,48.5,29.96,North,0,0.0,0.0,25,0.00,,---,0.00,VWS V13.01,2013-06-16 19:49:00,
2013-06-16 15:54:00,89.6,44.5,29.96,East,88,3.1,3.6,21,0.00,,---,0.00,VWS V13.01,2013-06-16 19:54:00,
2013-06-16 15:59:00,90.0,46.1,29.96,North,3,0.0,0.0,22,0.00,,---,0.00,VWS V13.01,2013-06-16 19:59:00,
2013-06-16 16:04:00,90.7,46.7,29.96,SSW,205,0.0,0.0,22,0.00,,---,0.00,VWS V13.01,2013-06-16 20:04:00,
2013-06-16 16:09:00,91.2,44.6,29.96,NE,41,2.2,3.1,20,0.00,,---,0.00,VWS V13.01,2013-06-16 20:09:00,
2013-06-16 16:14:00,91.0,44.4,29.96,NNE,20,0.0,3.1,20,0.00,,---,0.00,VWS V13.01,2013-06-16 20:14:00,
2013-06-16 16:19:00,91.0,43.1,29.96,East,89,2.2,2.7,19,0.00,,---,0.00,VWS V13.01,2013-06-16 20:19:00,
2013-06-16 16:24:00,91.0,44.4,29.96,North,5,3.6,3.6,20,0.00,,---,0.00,VWS V13.01,2013-06-16 20:24:00,
2013-06-16 16:29:00,91.6,43.5,29.96,North,0,4.0,4.0,19,0.00,,---,0.00,VWS V13.01,2013-06-16 20:29:00,
2013-06-16 16:34:00,91.6,43.5,29.96,North,2,0.0,2.7,19,0.00,,---,0.00,VWS V13.01,2013-06-16 20:34:00,
2013-06-16 16:39:00,91.0,44.4,29.96,SSE,163,0.0,0.0,20,0.00,,---,0.00,VWS V13.01,2013-06-16 20:39:00,
2013-06-16 16:44:00,90.3,43.8,29.96,North,5,4.0,4.0,20,0.00,,---,0.00,VWS V13.01,2013-06-16 20:44:00,
2013-06-16 16:49:00,89.6,43.3,29.96,North,357,0.0,2.2,20,0.00,,---,0.00,VWS V13.01,2013-06-16 20:49:00,
2013-06-16 16:54:00,89.2,44.2,29.96,NNE,27,2.2,3.1,21,0.00,,---,0.00,VWS V13.01,2013-06-16 20:54:00,
2013-06-16 16:59:00,89.2,44.2,29.96,NNE,14,2.7,3.6,21,0.00,,---,0.00,VWS V13.01,2013-06-16 20:59:00,
2013-06-16 17:04:00,89.4,44.4,29.96,NE,46,0.0,3.1,21,0.00,,---,0.00,VWS V13.01,2013-06-16 21:04:00,
2013-06-16 17:09:00,89.6,43.3,29.96,North,353,0.0,0.0,20,0.00,,---,0.00,VWS V13.01,2013-06-16 21:09:00,
2013-06-16 17:14:00,88.7,45.0,29.96,SSW,205,0.0,2.7,22,0.00,,---,0.00,VWS V13.01,2013-06-16 21:14:00,
2013-06-16 17:19:00,88.2,44.6,29.96,West,270,3.1,3.1,22,0.00,,---,0.00,VWS V13.01,2013-06-16 21:19:00,
2013-06-16 17:25:00,87.6,45.3,29.96,NNE,21,0.0,2.2,23,0.00,,---,0.00,VWS V13.01,2013-06-16 21:25:00,
2013-06-16 17:30:00,86.9,45.8,29.96,NNE,23,0.0,0.0,24,0.00,,---,0.00,VWS V13.01,2013-06-16 21:30:00,
2013-06-16 17:35:00,86.4,48.5,29.96,NNE,22,0.0,0.0,27,0.00,,---,0.00,VWS V13.01,2013-06-16 21:35:00,
2013-06-16 17:40:00,86.2,48.3,29.96,NNE,22,0.0,0.0,27,0.00,,---,0.00,VWS V13.01,2013-06-16 21:40:00,
2013-06-16 17:45:00,86.0,48.2,29.96,NNE,13,0.0,0.0,27,0.00,,---,0.00,VWS V13.01,2013-06-16 21:45:00,
2013-06-16 17:50:00,85.6,49.8,29.96,NNE,14,2.7,3.6,29,0.00,,---,0.00,VWS V13.01,2013-06-16 21:50:00,
2013-06-16 17:55:00,85.8,49.0,29.96,NNE,18,0.0,4.0,28,0.00,,---,0.00,VWS V13.01,2013-06-16 21:55:00,
2013-06-16 18:00:00,85.6,47.9,29.96,North,11,0.0,0.0,27,0.00,,---,0.00,VWS V13.01,2013-06-16 22:00:00,
2013-06-16 18:05:00,85.5,46.7,29.96,South,184,0.0,0.0,26,0.00,,---,0.00,VWS V13.01,2013-06-16 22:05:00,
2013-06-16 18:10:00,85.1,48.4,29.96,NE,50,0.0,0.0,28,0.00,,---,0.00,VWS V13.01,2013-06-16 22:10:00,
2013-06-16 18:15:00,84.9,49.2,29.96,NNE,32,0.0,0.0,29,0.00,,---,0.00,VWS V13.01,2013-06-16 22:15:00,
2013-06-16 18:20:00,84.6,48.8,29.96,NNE,17,0.0,0.0,29,0.00,,---,0.00,VWS V13.01,2013-06-16 22:20:00,
2013-06-16 18:25:00,84.4,48.7,29.96,NNE,15,2.2,2.7,29,0.00,,---,0.00,VWS V13.01,2013-06-16 22:25:00,
2013-06-16 18:30:00,84.2,47.6,29.96,North,3,3.6,3.6,28,0.00,,---,0.00,VWS V13.01,2013-06-16 22:30:00,
2013-06-16 18:35:00,84.2,48.5,29.96,NNE,19,0.0,0.0,29,0.00,,---,0.00,VWS V13.01,2013-06-16 22:35:00,
2013-06-16 18:40:00,84.0,48.4,29.96,NNE,19,0.0,0.0,29,0.00,,---,0.00,VWS V13.01,2013-06-16 22:40:00,
2013-06-16 18:45:00,83.8,49.1,29.96,NNE,18,0.0,0.0,30,0.00,,---,0.00,VWS V13.01,2013-06-16 22:45:00,
2013-06-16 18:50:00,83.5,48.8,29.96,NNE,18,0.0,0.0,30,0.00,,---,0.00,VWS V13.01,2013-06-16 22:50:00,
2013-06-16 18:55:00,83.3,48.7,29.96,NNE,18,0.0,0.0,30,0.00,,---,0.00,VWS V13.01,2013-06-16 22:55:00,
2013-06-16 19:00:00,83.1,48.5,29.96,NNE,14,0.0,0.0,30,0.00,,---,0.00,VWS V13.01,2013-06-16 23:00:00,
2013-06-16 19:05:00,82.9,48.3,29.96,NNE,18,0.0,0.0,30,0.00,,---,0.00,VWS V13.01,2013-06-16 23:05:00,
2013-06-16 19:10:00,82.9,49.2,29.96,NNE,18,0.0,0.0,31,0.00,,---,0.00,VWS V13.01,2013-06-16 23:10:00,
2013-06-16 19:15:00,82.8,49.1,29.96,NNE,18,0.0,0.0,31,0.00,,---,0.00,VWS V13.01,2013-06-16 23:15:00,
2013-06-16 19:20:00,82.4,49.6,29.96,NNE,17,0.0,0.0,32,0.00,,---,0.00,VWS V13.01,2013-06-16 23:20:00,
2013-06-16 19:25:00,82.4,49.6,29.96,NNE,17,0.0,0.0,32,0.00,,---,0.00,VWS V13.01,2013-06-16 23:25:00,
2013-06-16 19:30:00,82.2,49.5,29.96,NNE,19,0.0,0.0,32,0.00,,---,0.00,VWS V13.01,2013-06-16 23:30:00,
2013-06-16 19:35:00,82.0,50.1,29.96,NNE,19,0.0,0.0,33,0.00,,---,0.00,VWS V13.01,2013-06-16 23:35:00,
2013-06-16 19:40:00,82.0,50.1,29.96,NNE,19,0.0,0.0,33,0.00,,---,0.00,VWS V13.01,2013-06-16 23:40:00,
2013-06-16 19:45:00,81.9,50.0,29.96,NNE,19,0.0,0.0,33,0.00,,---,0.00,VWS V13.01,2013-06-16 23:45:00,
2013-06-16 19:50:00,81.5,49.7,29.96,NNE,19,0.0,0.0,33,0.00,,---,0.00,VWS V13.01,2013-06-16 23:50:00,
2013-06-16 19:55:00,81.1,49.3,29.96,NNE,18,0.0,0.0,33,0.00,,---,0.00,VWS V13.01,2013-06-16 23:55:00,
2013-06-16 20:01:00,81.0,50.0,29.96,NNE,18,0.0,0.0,34,0.00,,---,0.00,VWS V13.01,2013-06-17 00:01:00,
2013-06-16 20:06:00,80.4,50.3,29.96,NNE,18,0.0,0.0,35,0.00,,---,0.00,VWS V13.01,2013-06-17 00:06:00,
2013-06-16 20:11:00,80.2,50.1,29.96,NNE,18,0.0,0.0,35,0.00,,---,0.00,VWS V13.01,2013-06-17 00:11:00,
2013-06-16 20:16:00,79.9,49.8,29.96,NNE,18,0.0,0.0,35,0.00,,---,0.00,VWS V13.01,2013-06-17 00:16:00,
2013-06-16 20:21:00,79.5,50.2,29.96,NNE,18,0.0,0.0,36,0.00,,---,0.00,VWS V13.01,2013-06-17 00:21:00,
2013-06-16 20:26:00,79.2,50.7,29.96,NNE,18,0.0,0.0,37,0.00,,---,0.00,VWS V13.01,2013-06-17 00:26:00,
2013-06-16 20:31:00,79.0,50.5,29.96,NNE,18,0.0,0.0,37,0.00,,---,0.00,VWS V13.01,2013-06-17 00:31:00,
2013-06-16 20:36:00,78.8,51.1,29.96,NNE,18,0.0,0.0,38,0.00,,---,0.00,VWS V13.01,2013-06-17 00:36:00,
2013-06-16 20:41:00,78.6,50.9,29.96,NNE,18,0.0,0.0,38,0.00,,---,0.00,VWS V13.01,2013-06-17 00:41:00,
2013-06-16 20:46:00,78.4,51.5,29.96,NNE,18,0.0,0.0,39,0.00,,---,0.00,VWS V13.01,2013-06-17 00:46:00,
2013-06-16 20:51:00,78.3,51.3,29.96,NNE,18,0.0,0.0,39,0.00,,---,0.00,VWS V13.01,2013-06-17 00:51:00,
2013-06-16 20:56:00,78.1,51.8,29.96,NNE,18,0.0,0.0,40,0.00,,---,0.00,VWS V13.01,2013-06-17 00:56:00,
2013-06-16 21:01:00,77.9,51.7,29.96,NNE,18,0.0,0.0,40,0.00,,---,0.00,VWS V13.01,2013-06-17 01:01:00,
2013-06-16 21:06:00,77.5,52.0,29.96,NNE,18,0.0,0.0,41,0.00,,---,0.00,VWS V13.01,2013-06-17 01:06:00,
2013-06-16 21:11:00,77.4,51.8,29.96,NNE,18,0.0,0.0,41,0.00,,---,0.00,VWS V13.01,2013-06-17 01:11:00,
2013-06-16 21:16:00,77.4,51.8,29.96,NNE,18,0.0,0.0,41,0.00,,---,0.00,VWS V13.01,2013-06-17 01:16:00,
2013-06-16 21:21:00,77.4,51.8,29.96,NNE,18,0.0,0.0,41,0.00,,---,0.00,VWS V13.01,2013-06-17 01:21:00,
2013-06-16 21:26:00,77.4,51.8,29.96,NNE,18,0.0,0.0,41,0.00,,---,0.00,VWS V13.01,2013-06-17 01:26:00,
2013-06-16 21:31:00,77.4,51.8,29.96,NNE,18,0.0,0.0,41,0.00,,---,0.00,VWS V13.01,2013-06-17 01:31:00,
2013-06-16 21:36:00,77.4,51.8,29.96,NNE,18,0.0,0.0,41,0.00,,---,0.00,VWS V13.01,2013-06-17 01:36:00,
2013-06-16 21:41:00,77.4,51.8,29.96,NNE,18,0.0,0.0,41,0.00,,---,0.00,VWS V13.01,2013-06-17 01:41:00,
2013-06-16 21:46:00,77.4,51.8,29.96,NNE,18,0.0,0.0,41,0.00,,---,0.00,VWS V13.01,2013-06-17 01:46:00,
2013-06-16 21:51:00,77.4,51.8,29.96,NNE,18,0.0,0.0,41,0.00,,---,0.00,VWS V13.01,2013-06-17 01:51:00,
2013-06-16 21:56:00,77.4,51.8,29.96,NNE,18,0.0,0.0,41,0.00,,---,0.00,VWS V13.01,2013-06-17 01:56:00,
2013-06-16 22:02:00,77.4,51.8,29.96,NNE,18,0.0,0.0,41,0.00,,---,0.00,VWS V13.01,2013-06-17 02:02:00,
2013-06-16 22:07:00,77.4,51.8,29.96,NNE,18,0.0,0.0,41,0.00,,---,0.00,VWS V13.01,2013-06-17 02:07:00,
2013-06-16 22:12:00,77.4,51.8,29.96,NNE,18,0.0,0.0,41,0.00,,---,0.00,VWS V13.01,2013-06-17 02:12:00,
2013-06-16 22:23:00,76.1,52.6,29.99,NNE,18,0.0,0.0,44,0.00,,---,0.00,VWS V13.01,2013-06-17 02:23:00,
2013-06-16 22:28:00,75.9,52.5,29.99,NNE,18,0.0,0.0,44,0.00,,---,0.00,VWS V13.01,2013-06-17 02:28:00,
2013-06-16 22:33:00,75.7,52.3,29.99,NNE,18,0.0,0.0,44,0.00,,---,0.00,VWS V13.01,2013-06-17 02:33:00,
2013-06-16 22:38:00,75.6,52.1,29.99,NNE,18,0.0,0.0,44,0.00,,---,0.00,VWS V13.01,2013-06-17 02:38:00,
2013-06-16 22:44:00,75.4,52.6,29.99,NNE,18,0.0,0.0,45,0.00,,---,0.00,VWS V13.01,2013-06-17 02:44:00,
2013-06-16 22:49:00,75.4,52.6,29.99,NNE,18,0.0,0.0,45,0.00,,---,0.00,VWS V13.01,2013-06-17 02:49:00,
2013-06-16 22:54:00,75.2,52.4,29.99,NNE,18,0.0,0.0,45,0.00,,---,0.00,VWS V13.01,2013-06-17 02:54:00,
2013-06-16 22:59:00,75.0,53.4,29.99,NNE,22,0.0,0.0,47,0.00,,---,0.00,VWS V13.01,2013-06-17 02:59:00,
2013-06-16 23:04:00,75.0,53.4,29.99,NNE,22,0.0,0.0,47,0.00,,---,0.00,VWS V13.01,2013-06-17 03:04:00,
2013-06-16 23:09:00,74.8,53.3,29.99,NNE,22,0.0,0.0,47,0.00,,---,0.00,VWS V13.01,2013-06-17 03:09:00,
2013-06-16 23:14:00,74.7,53.1,29.99,NNE,22,0.0,0.0,47,0.00,,---,0.00,VWS V13.01,2013-06-17 03:14:00,
2013-06-16 23:19:00,74.5,53.5,29.99,NNE,22,0.0,0.0,48,0.00,,---,0.00,VWS V13.01,2013-06-17 03:19:00,
2013-06-16 23:24:00,74.3,53.9,29.99,NNE,22,0.0,0.0,49,0.00,,---,0.00,VWS V13.01,2013-06-17 03:24:00,
2013-06-16 23:29:00,74.1,54.3,29.99,NNE,22,0.0,0.0,50,0.00,,---,0.00,VWS V13.01,2013-06-17 03:29:00,
2013-06-16 23:34:00,74.1,54.3,29.99,NNE,22,0.0,0.0,50,0.00,,---,0.00,VWS V13.01,2013-06-17 03:34:00,
2013-06-16 23:39:00,74.1,54.3,29.99,NNE,22,0.0,0.0,50,0.00,,---,0.00,VWS V13.01,2013-06-17 03:39:00,
2013-06-16 23:44:00,74.1,53.8,29.99,NNE,22,0.0,0.0,49,0.00,,---,0.00,VWS V13.01,2013-06-17 03:44:00,
2013-06-16 23:50:00,73.9,53.6,29.99,NNE,22,0.0,0.0,49,0.00,,---,0.00,VWS V13.01,2013-06-17 03:50:00,
2013-06-16 23:55:00,73.8,53.4,29.99,NNE,22,0.0,0.0,49,0.00,,---,0.00,VWS V13.01,2013-06-17 03:55:00,